Location: Unspecified
(41.1637°N, 24.2901°E)
Time: 06:27:43
(UTC+01:00)

ISS - Pass Details

Date: 10 December 2019
Orbit: 411 x 421 km, 51.6° (Epoch: 15 December)

Event Time Altitude Azimuth Distance (km) Brightness Sun altitude
Rises 18:27:45 0° 285° (WNW) 2,359 1.1 -28.1°
Reaches altitude 10° 18:31:15 10° 247° (WSW) 1,492 -0.1 -28.8°
Maximum altitude 18:32:08 11° 231° (SW) 1,445 -0.4 -28.9°
Enters shadow 18:32:55 10° 218° (SW) 1,483 -0.5 -29.1°
